Regional Weather Roundup
Issued by NWS Bismarck, ND

Home | Current Version | Previous Version | Text Only | Print | Product List | Glossary On
Versions: 1 2 3 4 5 6 7 8 9 10 11 12 13 14 15 16 17 18 19 20 21 22 23 24 25 26 27 28 29 30 31 32 33 34 35 36 37 38 39 40 41 42 43 44 45 46 47 48 49 50
000
ASUS43 KBIS 182010
RWRBIS

NWR BROADCAST TEXT
NATIONAL WEATHER SERVICE BISMARCK ND
200 PM CST SUN FEB 18 2018

NOTE: "FAIR" INDICATES FEW OR NO CLOUDS BELOW 12,000 FEET WITH NO
SIGNIFICANT WEATHER AND/OR OBSTRUCTIONS TO VISIBILITY.


CITY           SKY/WX    TMP DP  RH WIND       PRES   REMARKS
WILLISTON      CLOUDY    10   1  67 N14       29.93F WCI  -6
MINOT          FAIR      11   2  67 N17       29.90R WCI  -6
MINOT AFB      MOSUNNY   10   1  66 N15       29.89S WCI  -6
BISMARCK       CLOUDY    13   7  77 N15       29.83R WCI  -3
DICKINSON      CLOUDY     8   1  73 N10       29.81R WCI  -6
GARRISON         N/A     10   2  69 N12G21    29.86R WCI  -5
HETTINGER ARPT LGT SNOW   9   3  77 N16G24    29.77S WCI  -8
JAMESTOWN      MIX PCPN  14  10  84 N24       29.74R WCI  -5
CARRINGTON     LGT SNOW  12   7  79 N22       29.82R WCI  -7
LINTON           N/A     16   9  73 N16G24    29.77R WCI   0
OAKES            N/A     18  12  79 N25G36    29.67S WCI  -1
TIOGA          CLOUDY     7   1  78 N14G20    29.90S WCI -10
$$

CITY           SKY/WX    TMP DP  RH WIND       PRES   REMARKS
GRAND FORKS    LGT SNOW  14  10  84 N23       29.84S VSB 1   WCI  -5
GRAND FORKS AF CLOUDY    12   7  79 NE23      29.84S BLWGSNOWWCI  -7
DEVILS LAKE    FLURRIES  10   4  76 NE18      29.85S WCI  -8
FARGO          CLOUDY    19  15  84 N24G33    29.72R FOG     WCI   2
CANDO          CLOUDY    12   3  67 N21       29.89R WCI  -6
CAVALIER         N/A     10   7  85 N14G20    29.91F WCI  -5
GWINNER          N/A     19  16  86 N24       29.66F WCI   2
ROLLA          FAIR       9   0  66 N17       29.86F WCI -10
WALHALLA       FAIR      10   7  85 N14       29.92F WCI  -5
$$

CITY           SKY/WX    TMP DP  RH WIND       PRES   REMARKS
ABERDEEN       CLOUDY    23  16  74 N23G30    29.65R WCI   7
MOBRIDGE       LGT SNOW  19  12  74 N21       29.69R WCI   3
BUFFALO          N/A     10   3  73 NW18      29.71R WCI  -8
RAPID CITY     SNOW      16  12  84 N38G52    29.63R VSB 1/2 WCI  -6
GLASGOW        CLOUDY     7  -1  70 N14       29.98R WCI -10
SIDNEY         CLOUDY    10   3  73 N14       29.95R WCI  -6
WOLF POINT     PTSUNNY   10   1  67 N12       29.99R WCI  -5
GLENDIVE       FLURRIES   9   3  77 N14       29.91R WCI  -7
MILES CITY     LGT SNOW  10   4  76 N13       29.92R WCI  -5
BAKER          FLURRIES   8   3  80 N18       29.82R WCI -11
$$

CITY           SKY/WX    TMP DP  RH WIND       PRES   REMARKS
BILLINGS       SNOW       7   3  84 NE9       29.85S VSB 1/2 WCI  -7
GREAT FALLS    CLOUDY     4  -3  73 N14       29.93R WCI -14
REGINA         CLOUDY     9  -4  56 N2        29.98S
ESTEVAN        PTSUNNY   10  -2  56 N13       29.97R WCI  -5
$$





USA.gov is the U.S. government's official web portal to all federal, state and local government web resources and services.